Flag for Germany Weather past 2 weeks in Bamberg, Bavaria, Germany

Now
71 °F

Overcast.


Feels Like: 75 °F
Forecast: 59 / 86 °F
Wind: 2 mph from Northwest

Location: Bamberg

Current Time: Aug 28, 2015 at 2:33:35 AM

Latest Report: Aug 28, 2015 at 2:00 AM


Visibility: 44 mi

Pressure: 29.85 "Hg

Humidity: 67%

Dew point: 60 °F

Location of BambergLocation

Historic Weather in Bamberg — Graph

°F

Bamberg temperature yesterday

Maximum temperature yesterday: 87 °F (at 5:00 PM)
Minimum temperature yesterday: 53 °F (at 1:00 AM)
Average temperature yesterday: 70 °F

Past Weeks' High & Low Weather Summary

 TemperatureHumidityPressure
High95 °F (Aug 13, 4:00 PM)100% (Aug 19, 2:00 AM)30.29 "Hg (Aug 19, 2:00 AM)
Low45 °F (Aug 22, 6:00 AM)25% (Aug 13, 5:00 PM)29.68 "Hg (Aug 24, 4:00 PM)
Average66 °F73%29.97 "Hg
* Reported Aug 12 11:00 PM — Aug 27 11:00 PM, Bamberg, Weather by CustomWeather, © 2015

Note: Actual official high and low records may vary slightly from our data, if they occured in-between our weather recording intervals... More about our weather records

Advertising

Bamberg weather history for previous 24 hours

 ConditionsComfort  
Time TempWeatherWind HumidityBarometerVisibility
11:00 PM
Thu, Aug 27
65 °FOvercast.1 mph81%29.83 "Hg40 mi
10:00 PM70 °FOvercast.3 mph61%29.81 "Hg43 mi
9:00 PM76 °FOvercast.2 mph47%29.80 "Hg43 mi
8:00 PM81 °FOvercast.3 mph38%29.80 "Hg43 mi
7:00 PM84 °FPartly sunny.5 mph34%29.79 "Hg43 mi
6:00 PM87 °FPartly sunny.6 mph31%29.79 "Hg13 mi
5:00 PM87 °FOvercast.5 mph32%29.81 "Hg22 mi
4:00 PM84 °FOvercast.5 mph37%29.83 "Hg28 mi
3:00 PM84 °FOvercast.5 mph39%29.86 "Hg28 mi
2:00 PM82 °FPleasantly warm.5 mph39%29.88 "Hg22 mi
1:00 PM81 °FOvercast.2 mph40%29.90 "Hg25 mi
12:00 PM77 °FOvercast.2 mph44%29.92 "Hg37 mi
11:00 AM73 °FOvercast.3 mph51%29.94 "Hg31 mi
10:00 AM69 °FOvercast.3 mph57%29.94 "Hg34 mi
9:00 AM65 °FOvercast.2 mph62%29.94 "Hg43 mi
8:00 AM60 °FOvercast.3 mph70%29.96 "Hg40 mi
7:00 AM53 °FOvercast.2 mph87%29.96 "Hg43 mi
4:00 AM54 °FClear.1 mph86%29.95 "Hg43 mi
3:00 AM53 °FOvercast.2 mph92%29.96 "Hg40 mi
2:00 AM55 °FOvercast.2 mph84%29.95 "Hg43 mi
Weather by CustomWeather, © 2015

See weather overviewHow to use our weather pages